2021/09/01, +9, 136.10,  34.85, 385
00:00:00,  970.3,   22.1,   92.7,    0.01,   -0.19,    0.0,  -28.4
00:00:10,  969.8,   23.6,   92.7,   -0.00,   -0.00,    0.0,  -32.3
00:00:20,  969.8,   23.3,   92.7,    0.00,   -0.18,    0.0,  -37.1
00:00:30,  969.7,   21.3,   92.7,    0.01,   -0.04,    0.0,  -23.9
00:00:40,  969.9,   23.2,   92.8,   -0.00,   -0.03,    0.0,  -27.8
00:00:50,  969.5,   22.4,   92.7,   -0.00,   -0.00,    0.0,  -42.7
00:01:00,  969.6,   21.8,   92.8,    0.00,   -0.00,    0.0,  -24.1
00:01:10,  969.8,   23.3,   92.9,   -0.00,   -0.00,    0.0,  -25.4
00:01:20,  969.7,   22.4,   92.8,   -0.00,   -0.00,    0.0,  -40.1
00:01:30,  969.7,   23.6,   93.0,    0.00,   -0.00,    0.0,  -41.6
00:01:40,  970.4,   19.0,   93.0,   -0.00,   -0.00,    0.0,  -43.7
00:01:50,  969.9,   23.5,   93.1,    0.00,   -0.00,    0.0,  -45.5
00:02:00,  969.9,   23.1,   93.1,    0.03,   -0.37,    0.0,  -30.6
00:02:10,  970.2,   16.8,   93.1,    0.04,   -0.30,    0.0,  -26.1
00:02:20,  969.8,   22.7,   93.1,    0.00,   -0.00,    0.0,  -27.4
00:02:30,  969.8,   11.8,   93.2,    0.00,   -0.00,    0.0,  -31.0
00:02:40,  969.8,   20.7,   93.2,   -0.00,   -0.03,    0.0,  -40.1
00:02:50,  969.9,   23.8,   93.2,    0.02,   -0.09,    0.0,  -23.7
00:03:00,  969.8,   11.3,   93.2,    0.00,   -0.00,    0.0,  -29.9
00:03:10,  969.9,   23.2,   93.2,   -0.00,   -0.01,    0.0,  -33.0
00:03:20,  969.8,   20.3,   93.1,    0.00,   -0.00,    0.0,  -29.3
00:03:30,  970.4,   18.7,   93.1,    0.03,   -0.25,    0.0,  -25.6
00:03:40,  970.5,   18.9,   93.1,   -0.00,   -0.00,    0.0,  -42.0
00:03:50,  969.9,   23.2,   93.2,   -0.00,   -0.00,    0.0,  -22.6
00:04:00,  970.4,   19.4,   93.1,   -0.00,   -0.00,    0.0,  -36.0
00:04:10,  970.0,   23.2,   93.3,   -0.00,   -0.00,    0.0,  -31.7
00:04:20,  969.8,   22.7,   93.2,    0.00,   -0.00,    0.0,  -39.6
00:04:30,  969.9,   24.2,   93.3,    0.04,   -0.36,    0.0,  -39.9
00:04:40,  970.0,   20.2,   93.2,    0.01,   -0.19,    0.0,  -28.9
00:04:50,  969.8,   11.0,   93.2,    0.00,   -0.00,    0.0,  -33.4
00:05:00,  969.8,   14.7,   93.3,    0.02,   -0.28,    0.0,  -23.1
00:05:10,  969.9,   23.2,   93.3,   -0.00,   -0.02,    0.0,  -30.2
00:05:20,  969.8,   23.1,   93.3,    0.00,   -0.00,    0.0,  -37.5
00:05:30,  969.7,   12.0,   93.3,    0.00,   -0.00,    0.0,  -29.3
00:05:40,  970.1,   19.2,   93.2,   -0.00,   -0.00,    0.0,  -47.8
00:05:50,  969.7,   24.1,   93.3,    0.01,   -0.09,    0.0,  -27.6
00:06:00,  970.0,   21.9,   93.2,   -0.00,   -0.00,    0.0,  -51.3
00:06:10,  970.0,   23.6,   93.2,    0.04,   -0.41,    0.0,  -32.8
00:06:20,  969.6,   12.2,   93.2,    0.00,   -0.00,    0.0,  -29.5
00:06:30,  969.7,   22.4,   93.2,   -0.00,   -0.00,    0.0,  -48.3
00:06:40,  969.9,   24.0,   93.1,   -0.00,   -0.00,    0.0,  -33.2
00:06:50,  969.8,   23.1,   93.1,   -0.00,   -0.06,    0.0,  -31.0
00:07:00,  969.5,   20.6,   93.0,    0.00,   -0.00,    0.0,  -31.9
00:07:10,  969.9,   20.4,   92.8,    0.00,   -0.00,    0.0,  -28.7
00:07:20,  969.9,   20.4,   92.8,    0.00,   -0.00,    0.0,  -30.8
00:07:30,  970.0,   20.1,   92.7,    0.00,   -0.00,    0.0,  -24.6
00:07:40,  969.7,   19.4,   92.8,    0.00,   -0.00,    0.0,  -30.0
00:07:50,  969.8,   21.1,   92.8,    0.04,   -0.37,    0.0,  -26.3
00:08:00,  969.8,   23.2,   92.7,    0.02,   -0.42,    0.0,  -34.7
00:08:10,  969.5,   23.3,   92.7,    0.00,   -0.00,    0.0,  -37.5
00:08:20,  969.6,   23.2,   92.7,    0.01,   -0.38,    0.0,  -34.3
00:08:30,  970.1,   18.7,   92.6,    0.04,   -0.27,    0.0,  -24.4
00:08:40,  969.6,   22.2,   92.6,    0.00,   -0.00,    0.0,  -25.4
00:08:50,  969.5,   11.7,   92.6,    0.00,   -0.00,    0.0,  -29.7
00:09:00,  969.7,   20.2,   92.6,    0.00,   -0.00,    0.0,  -35.6
00:09:10,  969.6,   12.1,   92.6,    0.00,   -0.00,    0.0,  -33.4
00:09:20,  970.1,   18.6,   92.5,    0.00,   -0.00,    0.0,  -22.0
00:09:30,  969.5,   24.3,   92.6,    0.01,   -0.24,    0.0,  -28.2
00:09:40,  969.5,   21.5,   92.5,    0.00,   -0.00,    0.0,  -27.8
00:09:50,  969.6,   24.1,   92.6,    0.00,   -0.00,    0.0,  -26.5
00:10:00,  969.7,   23.4,   92.5,    0.00,   -0.00,    0.0,  -37.1
00:10:10,  969.8,   19.1,   92.5,    0.04,   -0.38,    0.0,  -25.2
00:10:20,  969.6,   21.1,   92.5,    0.00,   -0.00,    0.0,  -27.8
00:10:30,  970.1,   19.8,   92.4,    0.00,   -0.03,    0.0,  -24.8
00:10:40,  970.0,   21.8,   92.2,   -0.00,   -0.00,    0.0,  -40.3
00:10:50,  969.7,   23.0,   92.4,    0.03,   -0.32,    0.0,  -35.3
00:11:00,  969.8,   19.4,   92.2,   -0.00,   -0.00,    0.0,  -35.3
00:11:10,  969.6,   21.0,   92.2,    0.02,   -0.12,    0.0,  -28.2
00:11:20,  970.2,   18.8,   92.2,   -0.00,   -0.00,    0.0,  -45.9
00:11:30,  969.8,   23.0,   92.2,    0.03,   -0.32,    0.0,  -37.5
00:11:40,  969.8,   23.1,   92.2,   -0.00,   -0.00,    0.0,  -34.3
00:11:50,  969.6,   23.2,   92.3,    0.00,   -0.00,    0.0,  -51.3
00:12:00,  969.7,   12.2,   92.3,    0.00,   -0.01,    0.0,  -30.8
00:12:10,  970.0,   18.8,   92.2,   -0.00,   -0.00,    0.0,  -52.6
00:12:20,  969.7,   23.5,   92.3,    0.00,   -0.00,    0.0,  -22.6
00:12:30,  969.7,   23.1,   92.3,   -0.00,   -0.00,    0.0,  -32.3
00:12:40,  969.6,   19.2,   92.3,   -0.00,   -0.08,    0.0,  -46.1
00:12:50,  969.8,   23.3,   92.5,    0.04,   -0.37,    0.0,  -28.9
00:13:00,  969.6,   24.3,   92.5,   -0.00,   -0.21,    0.0,  -27.4
00:13:10,  969.6,   23.1,   92.5,   -0.00,   -0.00,    0.0,  -31.9
00:13:20,  969.4,   22.5,   92.5,    0.00,   -0.00,    0.0,  -53.7
00:13:30,  969.7,   22.8,   92.5,    0.03,   -0.33,    0.0,  -31.5
00:13:40,  969.7,   24.0,   92.4,   -0.00,   -0.28,    0.0,  -28.4
00:13:50,  969.4,   23.0,   92.3,    0.00,   -0.00,    0.0,  -49.8
00:14:00,  970.0,   20.1,   92.1,    0.00,   -0.00,    0.0,  -34.0
00:14:10,  969.6,   18.7,   92.1,   -0.00,   -0.07,    0.0,  -39.4
00:14:20,  969.4,   22.2,   92.1,    0.00,   -0.00,    0.0,  -28.2
00:14:30,  969.5,   23.4,   92.1,    0.00,   -0.08,    0.0,  -50.4
00:14:40,  969.5,   11.5,   92.1,    0.00,   -0.00,    0.0,  -33.8
00:14:50,  969.5,   12.8,   92.1,    0.00,   -0.00,    0.0,  -33.0
00:15:00,  969.3,   22.1,   92.0,    0.00,   -0.00,    0.0,  -22.6
00:15:10,  969.7,   23.2,   92.2,    0.04,   -0.40,    0.0,  -27.8
00:15:20,  969.7,   23.7,   92.2,    0.04,   -0.40,    0.0,  -31.7
00:15:30,  970.0,   18.9,   92.1,    0.04,   -0.38,    0.0,  -22.8
00:15:40,  969.4,   23.2,   92.2,    0.00,   -0.00,    0.0,  -40.5
00:15:50,  969.4,   23.0,   92.2,   -0.00,   -0.00,    0.0,  -50.2
00:16:00,  970.1,   18.8,   92.1,   -0.00,   -0.00,    0.0,  -46.5
00:16:10,  969.6,   22.7,   92.2,    0.03,   -0.34,    0.0,  -30.6
00:16:20,  969.6,   23.1,   92.2,   -0.00,   -0.00,    0.0,  -29.7
00:16:30,  969.9,   19.5,   92.1,   -0.00,   -0.00,    0.0,  -37.9
00:16:40,  969.7,   22.9,   92.2,    0.02,   -0.27,    0.0,  -36.6
00:16:50,  969.5,   17.7,   92.2,   -0.00,   -0.17,    0.0,  -32.1
00:17:00,  969.4,   22.8,   92.2,    0.00,   -0.00,    0.0,  -51.1
00:17:10,  969.6,   24.3,   92.4,    0.00,   -0.21,    0.0,  -32.1
00:17:20,  969.6,   22.9,   92.4,    0.00,   -0.00,    0.0,  -33.0
00:17:30,  969.7,   19.0,   92.3,   -0.00,   -0.00,    0.0,  -46.5
00:17:40,  969.5,   22.6,   92.3,   -0.00,   -0.00,    0.0,  -47.8
00:17:50,  969.9,   21.9,   92.3,   -0.00,   -0.00,    0.0,  -46.5
00:18:00,  969.6,   23.4,   92.4,    0.04,   -0.39,    0.0,  -25.6
00:18:10,  969.5,   24.2,   92.5,   -0.00,   -0.20,    0.0,  -27.1
00:18:20,  970.0,   18.3,   92.4,   -0.00,   -0.00,    0.0,  -41.8
00:18:30,  969.6,   22.8,   92.5,    0.00,   -0.00,    0.0,  -34.3
00:18:40,  969.6,   22.8,   92.5,    0.02,   -0.25,    0.0,  -28.7
00:18:50,  969.5,   23.2,   92.5,   -0.00,   -0.13,    0.0,  -33.2
00:19:00,  969.5,   22.7,   92.5,    0.00,   -0.00,    0.0,  -46.1
00:19:10,  969.3,   20.5,   92.5,    0.00,   -0.00,    0.0,  -26.9
00:19:20,  969.3,   23.0,   92.5,    0.00,   -0.00,    0.0,  -33.2
00:19:30,  970.1,   19.8,   92.5,    0.00,   -0.00,    0.0,  -31.7
00:19:40,  969.6,   22.7,   92.7,    0.01,   -0.16,    0.0,  -29.7
00:19:50,  969.5,   23.0,   92.8,   -0.00,   -0.00,    0.0,  -35.1
00:20:00,  969.5,   21.9,   92.8,    0.01,   -0.15,    0.0,  -29.9
00:20:10,  969.9,   20.8,   92.6,   -0.00,   -0.00,    0.0,  -42.0
00:20:20,  969.9,   18.9,   92.5,   -0.00,   -0.00,    0.0,  -41.6
00:20:30,  969.5,   23.0,   92.4,   -0.00,   -0.00,    0.0,  -29.5
00:20:40,  969.5,   23.0,   92.3,   -0.00,   -0.00,    0.0,  -36.0
00:20:50,  969.6,   22.0,   92.2,   -0.00,   -0.00,    0.0,  -44.2
00:21:00,  970.0,   21.6,   92.1,   -0.00,   -0.00,    0.0,  -46.5
00:21:10,  969.4,   23.2,   92.2,    0.00,   -0.00,    0.0,  -49.8
00:21:20,  969.6,   22.9,   92.2,    0.03,   -0.30,    0.0,  -33.6
00:21:30,  969.9,   19.2,   92.1,    0.00,   -0.00,    0.0,  -33.4
00:21:40,  969.5,   21.6,   92.2,   -0.00,   -0.00,    0.0,  -46.5
00:21:50,  969.4,   23.0,   92.3,    0.00,   -0.00,    0.0,  -36.0
00:22:00,  969.4,   22.2,   92.4,    0.00,   -0.00,    0.0,  -26.1
00:22:10,  969.4,   22.6,   92.5,   -0.00,   -0.00,    0.0,  -51.5
00:22:20,  969.4,   23.3,   92.6,    0.01,   -0.10,    0.0,  -37.5
00:22:30,  969.3,   11.4,   92.6,    0.00,   -0.00,    0.0,  -26.1
00:22:40,  969.6,   22.0,   92.6,   -0.00,   -0.00,    0.0,  -45.7
00:22:50,  969.5,   20.0,   92.8,    0.00,   -0.23,    0.0,  -23.1
00:23:00,  969.4,   22.7,   92.8,   -0.00,   -0.00,    0.0,  -48.1
00:23:10,  969.4,   23.1,   92.9,    0.00,   -0.00,    0.0,  -46.3
00:23:20,  969.7,   23.8,   93.0,    0.04,   -0.39,    0.0,  -27.8
00:23:30,  969.5,   23.9,   92.9,    0.03,   -0.25,    0.0,  -25.6
00:23:40,  969.4,   11.2,   92.9,    0.00,   -0.00,    0.0,  -32.3
00:23:50,  969.7,   23.0,   92.9,   -0.00,   -0.00,    0.0,  -33.6
00:24:00,  970.0,   19.3,   92.9,   -0.00,   -0.00,    0.0,  -43.1
00:24:10,  969.6,   22.6,   93.1,   -0.00,   -0.07,    0.0,  -48.7
00:24:20,  969.6,   23.1,   93.1,    0.00,   -0.33,    0.0,  -38.1
00:24:30,  969.5,   19.9,   93.1,    0.01,   -0.21,    0.0,  -30.4
00:24:40,  969.7,   23.0,   93.1,   -0.00,   -0.00,    0.0,  -32.5
00:24:50,  969.6,   20.7,   93.1,   -0.00,   -0.09,    0.0,  -53.7
00:25:00,  969.6,   23.1,   93.1,    0.01,   -0.37,    0.0,  -38.1
00:25:10,  969.8,   23.8,   93.1,    0.05,   -0.40,    0.0,  -26.7
00:25:20,  969.7,   19.2,   93.0,    0.05,   -0.41,    0.0,  -26.1
00:25:30,  969.5,   24.1,   93.1,    0.03,   -0.22,    0.0,  -24.1
00:25:40,  969.4,   22.9,   93.0,   -0.00,   -0.00,    0.0,  -44.8
00:25:50,  969.6,   23.2,   93.0,   -0.00,   -0.26,    0.0,  -39.4
00:26:00,  969.4,   11.6,   92.9,    0.00,   -0.00,    0.0,  -27.4
00:26:10,  969.8,   21.5,   92.8,   -0.00,   -0.00,    0.0,  -48.7
00:26:20,  969.6,   18.8,   92.8,   -0.00,   -0.20,    0.0,  -26.5
00:26:30,  969.6,   18.6,   92.8,   -0.00,   -0.03,    0.0,  -50.0
00:26:40,  969.6,   18.4,   92.7,   -0.00,   -0.15,    0.0,  -22.8
00:26:50,  969.6,   20.0,   92.8,   -0.00,   -0.10,    0.0,  -49.8
00:27:00,  969.4,   21.8,   92.7,    0.00,   -0.00,    0.0,  -25.0
00:27:10,  970.0,   21.6,   92.6,   -0.00,   -0.00,    0.0,  -45.9
00:27:20,  969.5,   22.9,   92.7,    0.02,   -0.33,    0.0,  -38.1
00:27:30,  969.5,   23.3,   92.6,   -0.00,   -0.00,    0.0,  -32.5
00:27:40,  969.7,   22.7,   92.5,   -0.00,   -0.00,    0.0,  -33.2
00:27:50,  969.9,   19.7,   92.4,   -0.00,   -0.00,    0.0,  -45.9
00:28:00,  969.8,   21.6,   92.4,   -0.00,   -0.00,    0.0,  -50.9
00:28:10,  969.4,   23.2,   92.4,   -0.00,   -0.00,    0.0,  -36.4
00:28:20,  969.5,   23.2,   92.4,   -0.00,   -0.23,    0.0,  -33.6
00:28:30,  969.8,   18.9,   92.3,    0.04,   -0.29,    0.0,  -23.3
00:28:40,  969.3,   20.3,   92.3,    0.00,   -0.00,    0.0,  -34.5
00:28:50,  969.4,   21.0,   92.3,   -0.00,   -0.00,    0.0,  -49.1
00:29:00,  969.3,   23.2,   92.3,    0.00,   -0.00,    0.0,  -53.7
00:29:10,  969.3,   22.5,   92.4,    0.00,   -0.00,    0.0,  -28.0
00:29:20,  969.4,   23.0,   92.4,   -0.00,   -0.00,    0.0,  -48.3
00:29:30,  969.6,   22.9,   92.5,    0.03,   -0.32,    0.0,  -32.5
00:29:40,  969.3,   11.8,   92.5,    0.00,   -0.00,    0.0,  -30.4
00:29:50,  969.4,   22.2,   92.5,   -0.00,   -0.08,    0.0,  -47.0
00:30:00,  969.3,   22.0,   92.5,   -0.00,   -0.23,    0.0,  -36.6
00:30:10,  969.3,   20.2,   92.5,    0.00,   -0.00,    0.0,  -32.8
00:30:20,  969.2,   23.1,   92.5,   -0.00,   -0.00,    0.0,  -49.6
00:30:30,  969.2,   20.9,   92.5,    0.04,   -0.30,    0.0,  -25.6
00:30:40,  969.4,   22.3,   92.5,    0.00,   -0.00,    0.0,  -25.9
00:30:50,  969.3,   12.2,   92.5,    0.00,   -0.00,    0.0,  -33.6
00:31:00,  969.4,   22.2,   92.6,   -0.00,   -0.00,    0.0,  -33.2
00:31:10,  969.3,   23.4,   92.6,    0.00,   -0.00,    0.0,  -54.1
00:31:20,  969.4,   23.2,   92.6,    0.00,   -0.35,    0.0,  -41.2
00:31:30,  969.4,   17.7,   92.6,   -0.00,   -0.24,    0.0,  -25.0
00:31:40,  969.8,   18.4,   92.5,   -0.00,   -0.00,    0.0,  -43.8
00:31:50,  969.4,   22.7,   92.6,    0.00,   -0.00,    0.0,  -56.2
00:32:00,  969.2,   23.3,   92.6,    0.00,   -0.00,    0.0,  -50.9
00:32:10,  969.4,   22.8,   92.6,    0.03,   -0.31,    0.0,  -35.6
00:32:20,  969.3,   23.7,   92.6,   -0.00,   -0.25,    0.0,  -27.1
00:32:30,  969.3,   23.8,   92.5,    0.00,   -0.00,    0.0,  -21.8
00:32:40,  969.2,   22.2,   92.4,    0.00,   -0.00,    0.0,  -24.6
00:32:50,  969.3,   22.9,   92.4,    0.02,   -0.40,    0.0,  -36.6
00:33:00,  969.3,   22.9,   92.2,    0.00,   -0.00,    0.0,  -39.2
00:33:10,  969.2,   20.1,   92.1,    0.00,   -0.00,    0.0,  -32.8
00:33:20,  969.4,   22.8,   92.2,    0.03,   -0.32,    0.0,  -35.1
00:33:30,  969.1,   22.9,   92.1,    0.00,   -0.00,    0.0,  -53.4
00:33:40,  969.4,   23.0,   92.1,   -0.00,   -0.00,    0.0,  -36.2
00:33:50,  969.4,   23.0,   92.0,   -0.00,   -0.00,    0.0,  -34.9
00:34:00,  969.1,   11.2,   91.8,    0.00,   -0.00,    0.0,  -32.1
00:34:10,  969.1,   23.1,   91.8,   -0.00,   -0.00,    0.0,  -52.4
00:34:20,  969.2,   21.7,   91.7,    0.00,   -0.00,    0.0,  -25.9
00:34:30,  969.3,   23.2,   91.8,   -0.00,   -0.28,    0.0,  -35.3
00:34:40,  969.2,   23.2,   91.8,   -0.00,   -0.08,    0.0,  -52.4
00:34:50,  969.7,   18.5,   91.7,   -0.00,   -0.00,    0.0,  -39.2
00:35:00,  969.3,   22.0,   91.8,   -0.00,   -0.00,    0.0,  -52.1
00:35:10,  969.2,   22.6,   91.9,   -0.00,   -0.00,    0.0,  -54.1
00:35:20,  969.2,   22.1,   91.9,    0.07,   -0.31,    0.0,  -26.5
00:35:30,  969.3,   23.1,   92.0,    0.00,   -0.35,    0.0,  -35.6
00:35:40,  969.3,   23.1,   91.9,    0.00,   -0.00,    0.0,  -56.0
00:35:50,  969.2,   22.2,   92.0,    0.00,   -0.00,    0.0,  -24.8
00:36:00,  969.2,   22.9,   92.1,    0.00,   -0.00,    0.0,  -47.4
00:36:10,  969.5,   22.7,   92.1,    0.04,   -0.37,    0.0,  -31.7
00:36:20,  969.2,   22.3,   92.1,    0.00,   -0.00,    0.0,  -25.0
00:36:30,  969.5,   23.2,   92.2,   -0.00,   -0.00,    0.0,  -29.5
00:36:40,  969.2,   22.9,   92.1,    0.00,   -0.00,    0.0,  -38.4
00:36:50,  969.5,   23.1,   92.2,    0.04,   -0.37,    0.0,  -31.0
00:37:00,  969.7,   18.6,   92.1,   -0.00,   -0.00,    0.0,  -44.4
00:37:10,  969.0,   20.1,   92.0,    0.00,   -0.00,    0.0,  -32.5
00:37:20,  969.2,   21.5,   91.9,    0.00,   -0.00,    0.0,  -24.6
00:37:30,  969.9,   19.2,   91.8,    0.05,   -0.37,    0.0,  -26.7
00:37:40,  969.4,   17.8,   91.7,   -0.00,   -0.22,    0.0,  -22.2
00:37:50,  969.4,   23.0,   91.8,   -0.00,   -0.00,    0.0,  -28.0
00:38:00,  969.2,   22.6,   91.6,   -0.00,   -0.00,    0.0,  -51.7
00:38:10,  969.3,   22.6,   91.5,    0.00,   -0.00,    0.0,  -52.6
00:38:20,  969.8,   20.7,   91.5,   -0.00,   -0.00,    0.0,  -47.4
00:38:30,  969.3,   21.4,   91.5,    0.02,   -0.21,    0.0,  -31.7
00:38:40,  969.4,   21.7,   91.5,   -0.00,   -0.20,    0.0,  -26.1
00:38:50,  969.3,   24.0,   91.3,    0.01,   -0.23,    0.0,  -25.9
00:39:00,  969.8,   17.6,   91.1,    0.00,   -0.00,    0.0,  -29.7
00:39:10,  969.4,   18.4,   91.1,   -0.00,   -0.23,    0.0,  -24.1
00:39:20,  969.8,   19.1,   91.1,    0.00,   -0.04,    0.0,  -29.3
00:39:30,  969.3,   22.1,   91.1,    0.00,   -0.00,    0.0,  -21.8
00:39:40,  969.4,   22.8,   91.2,    0.04,   -0.36,    0.0,  -28.2
00:39:50,  969.3,   23.1,   91.1,    0.00,   -0.00,    0.0,  -40.9
00:40:00,  969.3,   21.5,   91.1,    0.00,   -0.00,    0.0,  -46.5
00:40:10,  969.7,   21.7,   91.0,   -0.00,   -0.00,    0.0,  -48.0
00:40:20,  969.7,   18.4,   91.0,    0.00,   -0.01,    0.0,  -35.3
00:40:30,  969.4,   14.7,   91.2,    0.00,   -0.21,    0.0,  -31.2
00:40:40,  969.2,   22.8,   91.4,    0.00,   -0.00,    0.0,  -51.7
00:40:50,  969.2,   21.9,   91.5,    0.05,   -0.44,    0.0,  -25.9
00:41:00,  969.1,   19.1,   91.5,    0.00,   -0.00,    0.0,  -27.8
00:41:10,  969.5,   23.0,   91.4,   -0.00,   -0.00,    0.0,  -29.5
00:41:20,  969.2,   22.4,   91.2,   -0.00,   -0.00,    0.0,  -51.7
00:41:30,  969.5,   22.7,   91.2,    0.03,   -0.32,    0.0,  -26.3
00:41:40,  969.3,   23.4,   91.2,    0.00,   -0.00,    0.0,  -24.8
00:41:50,  969.3,   11.2,   91.1,    0.00,   -0.00,    0.0,  -30.6
00:42:00,  969.7,   19.2,   91.2,   -0.00,   -0.00,    0.0,  -41.4
00:42:10,  969.2,   22.7,   91.3,    0.00,   -0.00,    0.0,  -49.8
00:42:20,  969.9,   21.9,   91.2,   -0.00,   -0.00,    0.0,  -52.8
00:42:30,  969.4,   21.1,   91.3,    0.03,   -0.16,    0.0,  -25.9
00:42:40,  969.6,   18.7,   91.3,   -0.00,   -0.00,    0.0,  -35.6
00:42:50,  969.3,   23.5,   91.3,    0.00,   -0.00,    0.0,  -47.4
00:43:00,  969.4,   23.0,   91.2,    0.01,   -0.41,    0.0,  -34.7
00:43:10,  969.8,   18.6,   91.0,    0.02,   -0.16,    0.0,  -27.6
00:43:20,  969.7,   19.5,   91.0,    0.00,   -0.00,    0.0,  -25.2
00:43:30,  969.3,   21.9,   91.1,   -0.00,   -0.00,    0.0,  -44.8
00:43:40,  969.2,   23.0,   91.2,    0.00,   -0.00,    0.0,  -38.6
00:43:50,  969.9,   20.1,   91.1,    0.04,   -0.25,    0.0,  -26.5
00:44:00,  969.3,   13.9,   91.1,    0.00,   -0.00,    0.0,  -32.3
00:44:10,  969.3,   22.9,   91.1,   -0.00,   -0.00,    0.0,  -48.0
00:44:20,  969.5,   22.9,   91.2,    0.02,   -0.32,    0.0,  -31.7
00:44:30,  969.3,   21.6,   91.1,    0.00,   -0.20,    0.0,  -17.7
00:44:40,  969.4,   22.9,   91.1,   -0.00,   -0.00,    0.0,  -31.0
00:44:50,  969.3,   22.1,   91.0,   -0.00,   -0.00,    0.0,  -48.7
00:45:00,  969.3,   22.5,   91.0,    0.04,   -0.20,    0.0,  -27.6
00:45:10,  969.8,   19.1,   91.0,    0.00,   -0.00,    0.0,  -30.8
00:45:20,  969.3,   23.3,   91.2,    0.00,   -0.00,    0.0,  -49.1
00:45:30,  969.5,   23.1,   91.3,   -0.00,   -0.27,    0.0,  -34.5
00:45:40,  969.4,   22.9,   91.5,    0.01,   -0.41,    0.0,  -35.6
00:45:50,  969.7,   21.5,   91.5,   -0.00,   -0.00,    0.0,  -34.9
00:46:00,  969.6,   22.9,   91.7,   -0.00,   -0.00,    0.0,  -31.9
00:46:10,  969.1,   19.7,   91.7,    0.00,   -0.00,    0.0,  -32.8
00:46:20,  969.3,   21.9,   91.7,    0.00,   -0.00,    0.0,  -26.1
00:46:30,  969.3,   21.1,   91.7,    0.00,   -0.00,    0.0,  -22.4
00:46:40,  969.4,   23.8,   91.7,    0.01,   -0.23,    0.0,  -23.7
00:46:50,  969.5,   22.9,   91.5,   -0.00,   -0.00,    0.0,  -31.0
00:47:00,  969.2,   23.3,   91.5,    0.00,   -0.00,    0.0,  -48.3
00:47:10,  969.5,   22.9,   91.5,   -0.00,   -0.00,    0.0,  -28.9
00:47:20,  969.3,   17.2,   91.4,    0.00,   -0.00,    0.0,  -30.4
00:47:30,  970.0,   17.2,   91.4,    0.00,   -0.12,    0.0,  -26.7
00:47:40,  969.4,   24.0,   91.4,    0.00,   -0.00,    0.0,  -27.4
00:47:50,  969.3,   23.0,   91.3,    0.00,   -0.00,    0.0,  -44.4
00:48:00,  970.0,   21.1,   91.2,   -0.00,   -0.00,    0.0,  -38.8
00:48:10,  969.4,   22.3,   91.1,    0.00,   -0.19,    0.0,  -24.1
00:48:20,  969.3,   19.6,   90.9,   -0.00,   -0.00,    0.0,  -45.9
00:48:30,  969.4,   22.1,   90.7,    0.00,   -0.00,    0.0,  -21.8
00:48:40,  969.2,   11.3,   90.4,    0.00,   -0.00,    0.0,  -31.5
00:48:50,  969.3,   14.0,   90.3,    0.00,   -0.00,    0.0,  -33.0
00:49:00,  969.8,   19.6,   90.2,    0.00,   -0.00,    0.0,  -26.5
00:49:10,  969.5,   22.9,   90.2,    0.01,   -0.37,    0.0,  -37.3
00:49:20,  969.7,   18.7,   90.0,   -0.00,   -0.05,    0.0,  -38.6
00:49:30,  969.2,   23.0,   89.9,   -0.00,   -0.00,    0.0,  -51.7
00:49:40,  969.5,   18.8,   89.8,   -0.00,   -0.00,    0.0,  -33.8
00:49:50,  969.5,   23.1,   89.8,   -0.00,   -0.00,    0.0,  -38.1
00:50:00,  969.3,   18.0,   89.7,    0.00,   -0.01,    0.0,  -21.6
00:50:10,  969.2,   23.1,   89.7,    0.00,   -0.00,    0.0,  -44.6
00:50:20,  969.8,   19.4,   89.7,    0.00,   -0.04,    0.0,  -27.4
00:50:30,  969.2,   22.3,   89.7,    0.00,   -0.00,    0.0,  -35.1
00:50:40,  969.9,   19.6,   89.7,   -0.00,   -0.00,    0.0,  -42.5
00:50:50,  969.6,   19.4,   89.8,    0.00,   -0.00,    0.0,  -29.3
00:51:00,  969.2,   22.2,   89.8,    0.06,   -0.32,    0.0,  -21.3
00:51:10,  969.7,   20.7,   89.8,   -0.00,   -0.00,    0.0,  -46.8
00:51:20,  969.3,   23.7,   90.0,    0.00,   -0.22,    0.0,  -21.6
00:51:30,  969.3,   22.9,   90.1,    0.00,   -0.00,    0.0,  -36.6
00:51:40,  969.3,   20.9,   90.2,   -0.00,   -0.00,    0.0,  -47.4
00:51:50,  969.2,   12.9,   90.2,    0.00,   -0.00,    0.0,  -28.9
00:52:00,  969.3,   21.9,   90.3,    0.00,   -0.22,    0.0,  -22.8
00:52:10,  969.2,   19.1,   90.2,    0.00,   -0.02,    0.0,  -26.1
00:52:20,  969.2,   21.8,   90.3,    0.00,   -0.00,    0.0,  -15.7
00:52:30,  969.2,   23.4,   90.4,    0.00,   -0.00,    0.0,  -22.6
00:52:40,  969.7,   17.6,   90.3,    0.00,   -0.10,    0.0,  -16.2
00:52:50,  969.2,   21.2,   90.3,    0.00,   -0.00,    0.0,  -18.3
00:53:00,  969.2,   23.0,   90.4,    0.00,   -0.00,    0.0,  -31.5
00:53:10,  969.2,   21.8,   90.3,   -0.00,   -0.00,    0.0,  -46.3
00:53:20,  969.3,   20.3,   90.4,    0.00,   -0.22,    0.0,  -22.2
00:53:30,  969.4,   22.8,   90.4,    0.00,   -0.00,    0.0,  -38.4
00:53:40,  969.0,   22.6,   90.3,   -0.00,   -0.00,    0.0,  -42.2
00:53:50,  969.2,   12.1,   90.3,    0.00,   -0.00,    0.0,  -30.0
00:54:00,  969.8,   20.4,   90.2,    0.02,   -0.15,    0.0,  -22.0
00:54:10,  969.3,   23.1,   90.1,    0.00,   -0.00,    0.0,  -33.6
00:54:20,  969.2,   23.1,   90.0,    0.00,   -0.00,    0.0,  -48.5
00:54:30,  969.3,   19.5,   90.0,   -0.00,   -0.02,    0.0,  -50.6
00:54:40,  969.7,   19.5,   89.7,    0.00,   -0.00,    0.0,  -35.8
00:54:50,  969.4,   23.4,   89.5,   -0.00,   -0.00,    0.0,  -31.0
00:55:00,  969.1,   23.8,   89.2,    0.04,   -0.25,    0.0,  -20.5
00:55:10,  969.1,   23.0,   89.1,    0.00,   -0.00,    0.0,  -34.3
00:55:20,  969.4,   18.3,   89.1,   -0.00,   -0.00,    0.0,  -31.9
00:55:30,  969.7,   19.3,   88.9,    0.00,   -0.04,    0.0,  -23.3
00:55:40,  969.3,   22.7,   89.0,    0.04,   -0.37,    0.0,  -34.5
00:55:50,  969.0,   23.2,   88.9,    0.00,   -0.00,    0.0,  -50.9
00:56:00,  969.2,   11.5,   89.0,    0.00,   -0.00,    0.0,  -31.7
00:56:10,  969.1,   23.3,   89.1,    0.00,   -0.00,    0.0,  -20.0
00:56:20,  969.7,   20.7,   89.0,    0.05,   -0.36,    0.0,  -19.8
00:56:30,  969.1,   11.7,   89.0,    0.00,   -0.00,    0.0,  -31.7
00:56:40,  969.7,   21.5,   89.1,   -0.00,   -0.00,    0.0,  -45.3
00:56:50,  969.5,   19.4,   89.1,   -0.00,   -0.00,    0.0,  -53.7
00:57:00,  969.7,   17.2,   89.1,    0.05,   -0.44,    0.0,  -22.6
00:57:10,  969.6,   19.1,   89.2,    0.00,   -0.11,    0.0,  -29.1
00:57:20,  969.1,   23.0,   89.3,   -0.00,   -0.00,    0.0,  -48.3
00:57:30,  969.7,   18.6,   89.3,    0.05,   -0.38,    0.0,  -20.3
00:57:40,  969.2,   14.1,   89.5,    0.00,   -0.00,    0.0,  -35.3
00:57:50,  969.2,   19.1,   89.4,   -0.00,   -0.08,    0.0,  -53.4
00:58:00,  969.3,   24.0,   89.5,    0.05,   -0.45,    0.0,  -24.6
00:58:10,  969.1,   23.8,   89.5,    0.01,   -0.26,    0.0,  -22.2
00:58:20,  969.6,   18.0,   89.4,   -0.00,   -0.00,    0.0,  -47.2
00:58:30,  969.6,   22.1,   89.5,   -0.00,   -0.00,    0.0,  -52.4
00:58:40,  969.0,   21.9,   89.5,    0.00,   -0.00,    0.0,  -21.8
00:58:50,  969.3,   21.7,   89.6,   -0.00,   -0.00,    0.0,  -34.9
00:59:00,  969.2,   23.0,   89.6,    0.01,   -0.10,    0.0,  -54.7
00:59:10,  969.3,   18.6,   89.5,   -0.01,   -0.10,    0.0,  -50.2
00:59:20,  969.5,   21.0,   89.6,   -0.00,   -0.00,    0.0,  -37.1